Regional Weather Roundup
Issued by NWS

Home | Current Version | Previous Version | Graphics & Text | Print | Product List | Glossary On
Versions: 1 2 3 4 5 6 7 8 9 10 11 12 13 14 15 16 17 18 19 20 21 22 23 24 25 26 27 28 29 30 31 32 33 34 35 36 37 38 39 40 41 42 43 44 45 46 47 48 49 50
000
ASUS43 KIND 020159
RWRIN

WEATHER ROUNDUP FOR INDIANA
NATIONAL WEATHER SERVICE INDIANAPOLIS IN
1000 PM EDT WED JUL 01 2015

NOTE: "FAIR" INDICATES FEW OR NO CLOUDS BELOW 12,000 FEET WITH NO
SIGNIFICANT WEATHER AND/OR OBSTRUCTIONS TO VISIBILITY.

* - STATION DOES NOT REPORT WEATHER SUCH AS PRECIPITATION OR FOG.

+ - STATION NOT QUALITY CONTROLLED BY THE NATIONAL WEATHER SERVICE.
    USE DATA WITH CAUTION...ESPECIALLY DEWPOINT AND RELATIVE
    HUMIDITY OBSERVATIONS.

INZ001>003-010>013-019-020-020300-
NORTHWEST INDIANA

CITY           SKY/WX    TMP DP  RH WIND       PRES   REMARKS
GARY /AIRPORT/ MOCLDY    59  54  82 NE7         N/A
RENSSELAER +   PTCLDY    59  55  88 N7        29.96S

$$

LMZ046-743>745-020300-
SOUTHERN LAKE MICHIGAN

STATION/POSITION TIME  TEMP    WIND        PRES    WAVE
                       AIR SEA DIR/SP/G            HT
                 (UTC) (F)     (DEG/KT/KT) (MB)    (FT)
BURNS HARBOR     0100   59      30/ 11/ 14 1015.9S
MICHIGAN CITY    0100   58      10/ 11/ 14   N/A
5NW MICH CITY    0100   59 65   30/ 10/ 14   N/A     3

$$

INZ004-005-014>016-021>024-020300-
NORTH CENTRAL INDIANA

CITY           SKY/WX    TMP DP  RH WIND       PRES   REMARKS
GOSHEN         CLOUDY    60  52  74 N9        29.96S
PERU/GRISSOM   PTCLDY    64  56  75 N10       29.94S
SOUTH BEND     CLOUDY    58  52  80 NW9       29.97F

$$

INZ006>009-017-018-025>027-020300-
NORTHEAST INDIANA

CITY           SKY/WX    TMP DP  RH WIND       PRES   REMARKS
ANGOLA *+        N/A     63  54  72 NW3       29.95S
FORT WAYNE     MOCLDY    65  57  75 NW6       29.95R

$$

INZ028-029-035-036-043>045-051>053-020300-
WEST CENTRAL INDIANA

CITY           SKY/WX    TMP DP  RH WIND       PRES   REMARKS
CRAWFORDSVL +  MOCLDY    67  60  79 N7        29.93S
GREENCASTLE +  CLOUDY    70  61  73 CALM      29.92S
LAFAYETTE      MOCLDY    64  54  69 NE9       29.94S
TERRE HAUTE    CLOUDY    71  68  90 E6        29.90S

$$

INZ030>032-037>040-046>048-054>057-064-065-020300-
CENTRAL INDIANA

CITY           SKY/WX    TMP DP  RH WIND       PRES   REMARKS
COLUMBUS       MOCLDY    72  64  78 CALM      29.92S
GREENWOOD *+   CLOUDY    72  63  73 NE5       29.92S
INDIANAPOLIS   MOCLDY    72  61  68 NE6       29.90S
-EAGLE CREEK   CLOUDY    72  63  73 N3        29.91F
KOKOMO *+      PTCLDY    64  57  77 N9        29.94S
MT COMFORT *+  CLOUDY    72 N/A N/A CALM      29.93R
SHELBYVILLE    CLOUDY    73  67  81 NE5       29.91S

$$

INZ033-034-041-042-049-050-058-059-020300-
EAST CENTRAL INDIANA

CITY           SKY/WX    TMP DP  RH WIND       PRES   REMARKS
MUNCIE         MOCLDY    69  63  81 N5        29.93S

$$

INZ060-061-067>069-081>083-085>088-020300-
SOUTHWEST INDIANA

CITY           SKY/WX    TMP DP  RH WIND       PRES   REMARKS
EVANSVILLE     CLOUDY    76  68  76 SW9       29.88F
HUNTINGBURG *+ MOCLDY    72  68  88 S6        29.89R

$$

INZ062-063-066-070>080-084-089>092-020300-
SOUTH CENTRAL AND SOUTHEAST INDIANA

CITY           SKY/WX    TMP DP  RH WIND       PRES   REMARKS
BLOOMINGTON    CLOUDY    72  69  90 CALM      29.91S
MADISON *+     MOCLDY    72  68  88 CALM      29.94R
SEYMOUR +      DRIZZLE   73  70  88 CALM      29.91S

$$



USA.gov is the U.S. government's official web portal to all federal, state and local government web resources and services.